Location: B?dargowo
(53.3916°N, 14.4413°E)
Time: 05:13:01
(UTC+00:00)

Cosmos 2333 Rocket - Pass Details

Date: 05 February 2023
Orbit: 837 x 864 km, 70.8° (Epoch: 24 March)

Event Time Altitude Azimuth Distance (km) Brightness Sun altitude
Rises 19:33:21 0° 243° (WSW) 3,392 5.9 -32.8°
Reaches altitude 10° 19:35:59 10° 252° (WSW) 2,464 5.2 -33.2°
Maximum altitude 19:41:09 35° 318° (NW) 1,335 3.5 -33.9°
Enters shadow 19:42:18 32° 343° (NNW) 1,414 3.6 -34.1°
